Stündliche Wetter Labedzin

Heute, 8 Mai, Samstag

Zeit Temperatur Niederschläge Wind Luftdruck Luftfeuchtigkeit
00:00 +1°C° 0 mm 5 m/S 752 mmHg 95%
01:00 0°C° 0 mm 4 m/S 752 mmHg 96%
02:00 0°C° 0 mm 4 m/S 752 mmHg 96%
03:00 0°C° 0 mm 5 m/S 753 mmHg 96%
04:00 0°C° 0 mm 5 m/S 753 mmHg 96%
05:00 +1°C° 0 mm 5 m/S 753 mmHg 93%
06:00 +2°C° 0 mm 5 m/S 754 mmHg 90%
07:00 +3°C° 0 mm 5 m/S 754 mmHg 87%
08:00 +4°C° 0.1 mm 6 m/S 754 mmHg 80%
09:00 +5°C° 0.1 mm 6 m/S 754 mmHg 73%
10:00 +8°C° 0.1 mm 6 m/S 755 mmHg 67%
11:00 +8°C° 0 mm 6 m/S 755 mmHg 63%
12:00 +9°C° 0 mm 5 m/S 755 mmHg 60%
13:00 +9°C° 0 mm 5 m/S 755 mmHg 57%
14:00 +10°C° 0 mm 5 m/S 755 mmHg 55%
15:00 +10°C° 0 mm 5 m/S 755 mmHg 53%
16:00 +12°C° 0 mm 5 m/S 755 mmHg 52%
17:00 +10°C° 0.1 mm 3 m/S 755 mmHg 58%
18:00 +9°C° 0.1 mm 2 m/S 755 mmHg 65%
19:00 +8°C° 0.1 mm 1 m/S 755 mmHg 71%
20:00 +7°C° 0 mm 2 m/S 755 mmHg 73%
21:00 +6°C° 0 mm 2 m/S 756 mmHg 75%
22:00 +5°C° 0 mm 2 m/S 756 mmHg 77%
23:00 +5°C° 0 mm 2 m/S 756 mmHg 79%

Morgen, 9 Mai, Sonntag

Zeit Temperatur Niederschläge Wind Luftdruck Luftfeuchtigkeit
00:00 +3°C° 0 mm 3 m/S 756 mmHg 81%
01:00 +3°C° 0 mm 3 m/S 756 mmHg 83%
02:00 +3°C° 0 mm 3 m/S 756 mmHg 84%
03:00 +3°C° 0 mm 3 m/S 755 mmHg 85%
04:00 +3°C° 0 mm 4 m/S 755 mmHg 86%
05:00 +4°C° 0 mm 4 m/S 755 mmHg 82%
06:00 +6°C° 0 mm 5 m/S 755 mmHg 78%
07:00 +7°C° 0 mm 5 m/S 754 mmHg 75%
08:00 +8°C° 0 mm 5 m/S 754 mmHg 75%
09:00 +8°C° 0 mm 5 m/S 754 mmHg 75%
10:00 +9°C° 0 mm 5 m/S 754 mmHg 75%
11:00 +13°C° 0 mm 5 m/S 754 mmHg 69%
12:00 +15°C° 0 mm 5 m/S 754 mmHg 63%
13:00 +19°C° 0 mm 6 m/S 753 mmHg 57%
14:00 +19°C° 0 mm 5 m/S 753 mmHg 59%
15:00 +19°C° 0 mm 5 m/S 753 mmHg 62%
16:00 +20°C° 0 mm 5 m/S 753 mmHg 65%
17:00 +18°C° 0 mm 4 m/S 753 mmHg 71%
18:00 +17°C° 0 mm 4 m/S 753 mmHg 77%
19:00 +14°C° 0 mm 4 m/S 753 mmHg 83%
20:00 +13°C° 0 mm 4 m/S 753 mmHg 82%
21:00 +12°C° 0 mm 4 m/S 753 mmHg 81%
22:00 +11°C° 0 mm 4 m/S 753 mmHg 80%
23:00 +11°C° 0 mm 4 m/S 753 mmHg 77%

übermorgen, 10 Mai, Montag

Zeit Temperatur Niederschläge Wind Luftdruck Luftfeuchtigkeit
00:00 +10°C° 0 mm 4 m/S 753 mmHg 75%
01:00 +10°C° 0 mm 4 m/S 753 mmHg 73%
02:00 +10°C° 0 mm 4 m/S 753 mmHg 76%
03:00 +8°C° 0 mm 4 m/S 753 mmHg 79%
04:00 +8°C° 0 mm 4 m/S 752 mmHg 82%
05:00 +10°C° 0 mm 4 m/S 752 mmHg 79%
06:00 +12°C° 0 mm 5 m/S 752 mmHg 77%
07:00 +14°C° 0 mm 5 m/S 752 mmHg 74%
08:00 +15°C° 0 mm 6 m/S 752 mmHg 69%
09:00 +17°C° 0 mm 6 m/S 752 mmHg 65%
10:00 +20°C° 0 mm 7 m/S 751 mmHg 60%
11:00 +21°C° 0 mm 7 m/S 751 mmHg 59%
12:00 +22°C° 0 mm 7 m/S 751 mmHg 57%
13:00 +23°C° 0 mm 7 m/S 751 mmHg 56%
14:00 +23°C° 0 mm 6 m/S 751 mmHg 58%
15:00 +23°C° 0 mm 6 m/S 751 mmHg 60%
16:00 +23°C° 0 mm 6 m/S 751 mmHg 62%
17:00 +21°C° 0 mm 5 m/S 751 mmHg 69%
18:00 +20°C° 0 mm 4 m/S 751 mmHg 75%
19:00 +18°C° 0 mm 3 m/S 751 mmHg 82%
20:00 +17°C° 0 mm 3 m/S 751 mmHg 84%
21:00 +16°C° 0 mm 3 m/S 751 mmHg 87%
22:00 +14°C° 0 mm 3 m/S 751 mmHg 89%
23:00 +14°C° 0 mm 3 m/S 751 mmHg 90%

11 Mai, Dienstag

Zeit Temperatur Niederschläge Wind Luftdruck Luftfeuchtigkeit
00:00 +13°C° 0 mm 3 m/S 751 mmHg 90%
01:00 +13°C° 0 mm 4 m/S 751 mmHg 91%
02:00 +13°C° 0 mm 4 m/S 750 mmHg 90%
03:00 +13°C° 0 mm 4 m/S 750 mmHg 88%
04:00 +13°C° 0 mm 4 m/S 750 mmHg 86%
05:00 +14°C° 0 mm 5 m/S 750 mmHg 84%
06:00 +15°C° 0 mm 5 m/S 750 mmHg 83%
07:00 +16°C° 0 mm 6 m/S 749 mmHg 81%
08:00 +19°C° 0 mm 6 m/S 749 mmHg 75%
09:00 +20°C° 0 mm 7 m/S 749 mmHg 70%
10:00 +22°C° 0 mm 7 m/S 749 mmHg 64%
11:00 +24°C° 0 mm 7 m/S 749 mmHg 62%
12:00 +26°C° 0 mm 7 m/S 749 mmHg 61%
13:00 +27°C° 0 mm 7 m/S 748 mmHg 59%
14:00 +27°C° 0 mm 7 m/S 748 mmHg 60%
15:00 +27°C° 0 mm 7 m/S 748 mmHg 61%
16:00 +26°C° 0 mm 6 m/S 748 mmHg 63%
17:00 +25°C° 0 mm 5 m/S 748 mmHg 68%
18:00 +22°C° 0 mm 5 m/S 748 mmHg 74%
19:00 +21°C° 0 mm 4 m/S 748 mmHg 80%
20:00 +19°C° 0 mm 4 m/S 748 mmHg 81%
21:00 +17°C° 0 mm 5 m/S 748 mmHg 82%
22:00 +16°C° 0 mm 5 m/S 748 mmHg 84%
23:00 +16°C° 0 mm 5 m/S 748 mmHg 83%

12 Mai, Mittwoch

Zeit Temperatur Niederschläge Wind Luftdruck Luftfeuchtigkeit
00:00 +15°C° 0 mm 6 m/S 748 mmHg 82%
01:00 +14°C° 0 mm 6 m/S 748 mmHg 80%
02:00 +14°C° 0 mm 6 m/S 748 mmHg 80%
03:00 +13°C° 0 mm 6 m/S 748 mmHg 80%
04:00 +11°C° 0 mm 6 m/S 748 mmHg 79%
05:00 +11°C° 0 mm 6 m/S 748 mmHg 78%
06:00 +13°C° 0 mm 6 m/S 748 mmHg 76%
07:00 +14°C° 0 mm 6 m/S 748 mmHg 74%
08:00 +15°C° 0 mm 6 m/S 748 mmHg 71%
09:00 +17°C° 0 mm 7 m/S 748 mmHg 68%
10:00 +18°C° 0 mm 7 m/S 748 mmHg 65%
11:00 +20°C° 0 mm 7 m/S 748 mmHg 63%
12:00 +21°C° 0 mm 7 m/S 747 mmHg 61%
13:00 +22°C° 0 mm 7 m/S 747 mmHg 59%
14:00 +22°C° 0 mm 7 m/S 747 mmHg 61%
15:00 +22°C° 0 mm 7 m/S 747 mmHg 64%
16:00 +22°C° 0 mm 7 m/S 747 mmHg 66%
17:00 +20°C° 0 mm 7 m/S 747 mmHg 67%
18:00 +19°C° 0 mm 6 m/S 747 mmHg 69%
19:00 +16°C° 0 mm 6 m/S 747 mmHg 70%
20:00 +15°C° 0 mm 6 m/S 748 mmHg 74%
21:00 +14°C° 0 mm 6 m/S 748 mmHg 78%
22:00 +13°C° 0 mm 5 m/S 748 mmHg 82%
23:00 +12°C° 0 mm 5 m/S 748 mmHg 81%

13 Mai, Donnerstag

Zeit Temperatur Niederschläge Wind Luftdruck Luftfeuchtigkeit
00:00 +10°C° 0 mm 5 m/S 748 mmHg 80%
01:00 +9°C° 0 mm 5 m/S 748 mmHg 79%
02:00 +8°C° 0 mm 5 m/S 748 mmHg 82%
03:00 +8°C° 0 mm 4 m/S 748 mmHg 86%
04:00 +7°C° 0 mm 4 m/S 748 mmHg 89%
05:00 +8°C° 0 mm 4 m/S 748 mmHg 87%
06:00 +9°C° 0 mm 5 m/S 748 mmHg 84%
07:00 +10°C° 0 mm 5 m/S 748 mmHg 81%
08:00 +12°C° 0 mm 5 m/S 748 mmHg 76%
09:00 +14°C° 0 mm 5 m/S 748 mmHg 70%
10:00 +15°C° 0 mm 5 m/S 748 mmHg 65%
11:00 +14°C° 0 mm 4 m/S 748 mmHg 65%
12:00 +14°C° 0 mm 4 m/S 748 mmHg 66%
13:00 +14°C° 0 mm 4 m/S 747 mmHg 67%
14:00 +14°C° 0 mm 4 m/S 747 mmHg 67%
15:00 +14°C° 0 mm 4 m/S 747 mmHg 67%
16:00 +14°C° 0 mm 3 m/S 747 mmHg 66%
17:00 +13°C° 0 mm 3 m/S 747 mmHg 70%
18:00 +14°C° 0 mm 2 m/S 747 mmHg 73%
19:00 +13°C° 0 mm 1 m/S 747 mmHg 76%
20:00 +12°C° 0 mm 1 m/S 747 mmHg 77%
21:00 +12°C° 0 mm 1 m/S 747 mmHg 78%
22:00 +11°C° 0 mm 1 m/S 747 mmHg 79%
23:00 +11°C° 0 mm 1 m/S 746 mmHg 80%
Mehr zeigen

Wir brauchen deine Erlaubnis

Meteoprog und unser Service Anbieter werden persönliche Daten aufbewahren, so wie Cookies, Geräte Bezeichnung oder ähnliche Technologien von deinem Gerät und Prozess, so wie Persönliche Daten Inhalte und Werbungen, genauso wie social Media und den Verkehr zu analysieren.

  • Aufbewahrung und/oder Zugang zu deiner Geräte Informationen.

    Cookies, Geräte Bezeichnung oder andere Informationen, können aufbewahrt oder Zugang zu deinem Gerät erhalten, für den Grund, der oben angegeben wird.

  • Personalisierte Werbung und Inhalte, Messungen, Einblick in das Publikum und Produkt Entwicklung.

    Werbungen und Inhalte können personalisiert werden, basierend auf ein Profil. Mehr Daten können besser personalisierte Werbungen und Inhalte hinzufügen. Werbung und Inhalte können gezeigt und gemessen werden. Einblicke über das Publikum, welche die Werbung gesehen haben und den Inhalt, können abgeleitet werden. So wie Daten können genutzt werden, um es zu verbessern oder die Benutzer Erfahrung zu verbessern das System und die Software.

Wenn du “Ich stimme zu” klickst, erlaubst du uns, die Cookies zu benutzen die Geräte Bezeichnung, den Web oder ähnliche Technologien zu benutzen. Deine Settings, können in deinem Gerät bei deinem Browser geändert werden.

Für den bestimmten Zweck, berechtigten Interessen beruhen darauf, mehr als auf den Inhalt. Du kannst mehr darüber in unseren Privaten und Cookie Politik lesen.